www.pogodaiklimat.ru

Погода и климат >> Архив погоды >> Финляндия >> Куопио Маанинка


ПОГОДА в Куопио Маанинка

  • Прогноз погоды в Куопио Маанинка
  • Монитор погоды в Куопио Маанинка

АРХИВ ПОГОДЫ в Куопио Маанинка

Время (UTC), дата Ветер
(напр.,м/с)
 
Видим.   Явления Облачность Т
(С)
Тd
(С)
f
(%)
Тe
(С)
Тes
(С)
Комфортность P
(гПа)
Po
(гПа)
Тmin
(С)
Tmax
(С)
R
(мм)
R24
(мм)
S
(см)
22 13.06 В 3 н/о н/о +10.9 +5.2 68 +9 +9 1021.2 1010.1
23 13.06 В 2-4
{5}
н/о н/о +11.2 +5.2 67 +10 +10 1020.9 1009.8
00 14.06 ЮВ 3-5
{5}
н/о н/о +11.2 +6.0 70 +10 +10 1020.1 1009.0
01 14.06 В 2 н/о н/о +11.1 +6.3 72 +10 +10 1019.5 1008.4
02 14.06 В 2 н/о н/о +11.1 +6.5 73 +10 +10 1019.2 1008.1
03 14.06 СВ 2-4
{4}
н/о н/о +11.1 +7.2 77 +10 +10 1019.1 1007.9
04 14.06 В 2 н/о н/о +11.5 +7.6 77 +10 +10 1018.9 1007.8
05 14.06 В 3-5
{5}
н/о н/о +13.6 +7.5 67 +13 +13 1019.1 1008.0
06 14.06 В 4-7
{7}
н/о н/о +15.4 +6.6 56 +15 +15 1018.6 1007.6 +10.7 +15.7
07 14.06 Ю 2-5
{7}
н/о н/о +17.2 +7.2 52 +18 +18 1018.7 1007.8
08 14.06 ЮВ 2 н/о н/о +17.5 +7.7 53 +18 +18 1018.4 1007.5
09 14.06 Ю 3-5
{5}
н/о н/о +17.6 +8.1 54 +18 +18 1018.4 1007.6
10 14.06 Ю 3 н/о н/о +17.7 +7.4 51 +18 +18 1018.3 1007.4
11 14.06 Ю 3 н/о н/о +19.0 +7.2 46 +20 +20 1017.9 1007.1
12 14.06 Ю 2-5
{7}
н/о н/о +20.1 +8.1 46 +22 +22 комфорт 1017.6 1006.8
13 14.06 Ю 2-4
{5}
н/о н/о +20.4 +8.0 45 +22 +22 комфорт 1017.2 1006.4
14 14.06 ЮВ 2 н/о н/о +20.6 +8.6 46 +23 +23 комфорт 1016.3 1005.6
15 14.06 Ю 3-6
{6}
н/о н/о +20.3 +8.1 45 +22 +22 комфорт 1016.0 1005.2
16 14.06 Ю 2 н/о н/о +20.0 +8.7 48 +22 +22 комфорт 1015.8 1005.0
17 14.06 Ю 2 н/о н/о +18.1 +9.3 56 +19 +19 1015.3 1004.5
18 14.06 Ю 2-4
{4}
н/о н/о +17.4 +8.4 55 +18 +18 1014.7 1003.9 +15.4 +21.4
19 14.06 Ю 2 н/о н/о +16.9 +9.3 61 +17 +17 1014.4 1003.6
20 14.06 ЮЗ 2 н/о н/о +16.2 +10.3 68 +16 +16 1014.5 1003.6
21 14.06 ЮЗ 4-5
{6}
н/о н/о +14.6 +10.9 78 +13 +13 1014.7 1003.7
22 14.06 ЮЗ 2-3
{4}
н/о н/о +14.1 +10.8 81 +14 +14 1014.5 1003.6
23 14.06 З 2 н/о н/о +13.7 +11.1 84 +13 +13 1014.7 1003.7
00 15.06 ЮЗ 1-2
{4}
н/о н/о +12.7 +11.8 94 +13 +13 1014.4 1003.4 0.6
01 15.06 СЗ 1 н/о н/о +12.4 +12.0 97 +12 +12 1014.1 1003.1
02 15.06 СВ 2-2
{2}
н/о н/о +12.0 +11.6 97 +11 +11 1013.8 1002.8 1
03 15.06 В 1-2
{2}
н/о н/о +12.3 +11.7 96 +12 +12 1014.0 1003.0 0.4
04 15.06 Ю 1 н/о н/о +12.7 +11.9 95 +13 +13 1014.3 1003.3
05 15.06 Ю 2 н/о н/о +13.0 +12.3 96 +12 +12 1014.1 1003.1
06 15.06 З 1-2
{3}
н/о н/о +13.5 +11.5 88 +14 +14 1014.4 1003.4 +12.0 +17.4 5
07 15.06 З 2-4
{4}
н/о н/о +14.4 +11.4 82 +14 +14 1014.4 1003.5
08 15.06 СЗ 1 н/о н/о +15.8 +10.2 69 +17 +17 1014.6 1003.7
09 15.06 З 2-3
{3}
н/о н/о +17.2 +10.9 66 +18 +18 1014.5 1003.7
10 15.06 З 2-3
{3}
н/о н/о +18.4 +10.7 61 +19 +19 1014.4 1003.6
11 15.06 З 2 н/о н/о +19.7 +10.4 55 +22 +22 комфорт 1014.4 1003.7
12 15.06 З 1-3
{3}
н/о н/о +21.2 +10.7 51 +23 +23 комфорт 1014.2 1003.5
13 15.06 Ю 2 н/о н/о +22.8 +10.6 46 +25 +25 комфорт 1013.9 1003.3
14 15.06 З 2-5
{5}
н/о н/о +20.8 +11.1 54 +23 +23 комфорт 1014.1 1003.4
15 15.06 ЮЗ 3-4
{4}
н/о н/о +20.2 +12.5 61 +22 +22 комфорт 1014.1 1003.4
16 15.06 ЮЗ 3 н/о н/о +20.8 +12.0 57 +23 +23 комфорт 1014.0 1003.3
17 15.06 ЮЗ 3 н/о н/о +20.9 +13.6 63 +24 +24 комфорт 1013.8 1003.1
18 15.06 З 5-7
{7}
н/о н/о +20.4 +12.7 61 +22 +22 комфорт 1013.8 1003.1 +13.5 +22.8
19 15.06 ЮЗ 5 н/о н/о +19.3 +12.8 66 +20 +20 1013.8 1003.1
20 15.06 ЮЗ 4 н/о н/о +17.9 +12.4 70 +18 +18 1013.9 1003.1
21 15.06 СЗ 2-3
{5}
н/о н/о +15.8 +11.7 77 +16 +16 1014.1 1003.2
22 15.06 З 3 н/о н/о +15.7 +11.8 78 +15 +15 1014.2 1003.3
23 15.06 З 3-3
{4}
н/о н/о +13.5 +9.9 79 +12 +12 1014.5 1003.6
00 16.06 С 1-1
{4}
н/о н/о +11.8 +8.9 82 +12 +12 1014.8 1003.8
01 16.06 СЗ 2 н/о н/о +12.6 +7.7 72 +12 +12 1014.7 1003.7
02 16.06 СЗ 2 н/о н/о +13.0 +6.6 65 +12 +12 1014.7 1003.7
03 16.06 СЗ 4-5
{5}
н/о н/о +13.5 +8.5 72 +12 +12 1014.7 1003.7
04 16.06 З 3 н/о н/о +13.8 +8.2 69 +13 +13 1014.6 1003.6
05 16.06 З 2-3
{3}
н/о н/о +14.9 +9.4 70 +15 +15 1014.5 1003.6
06 16.06 З 1-3
{3}
н/о н/о +16.8 +9.1 60 +18 +18 1014.4 1003.5 +10.8 +20.4
07 16.06 З 2-4
{6}
н/о н/о +18.3 +9.6 57 +19 +19 1014.0 1003.2
08 16.06 З 3 н/о н/о +19.6 +8.8 50 +21 +21 комфорт 1013.8 1003.0
09 16.06 ЮЗ 4-7
{8}
н/о н/о +20.8 +8.3 45 +22 +22 комфорт 1013.4 1002.7
10 16.06 З 4 н/о н/о +21.4 +9.3 46 +23 +23 комфорт 1013.0 1002.3
11 16.06 З 5 н/о н/о +22.2 +8.9 43 +24 +24 комфорт 1012.4 1001.8
12 16.06 ЮЗ 5-8
{9}
н/о н/о +22.9 +7.7 38 +24 +24 комфорт 1011.8 1001.2
13 16.06 З 4-5
{8}
н/о н/о +23.3 +8.3 38 +24 +24 комфорт 1011.6 1001.0
14 16.06 З 3 н/о н/о +23.7 +10.4 43 +25 +25 комфорт 1011.2 1000.6
15 16.06 З 4-8
{9}
н/о н/о +23.7 +9.0 39 +24 +24 комфорт 1010.7 1000.2
16 16.06 З 5-7
{9}
н/о н/о +23.9 +10.3 42 +25 +25 комфорт 1010.6 1000.0
17 16.06 З 5 н/о н/о +23.3 +8.7 39 +25 +25 комфорт 1010.3 999.7
18 16.06 З 4-7
{7}
н/о н/о +22.7 +9.6 43 +24 +24 комфорт 1010.1 999.5 +16.7 +24.0
19 16.06 ЮЗ 3 н/о н/о +21.1 +11.3 54 +23 +23 комфорт 1010.1 999.5
20 16.06 ЮЗ 2-4
{4}
н/о н/о +16.7 +11.0 69 +17 +17 1010.3 999.5
21 16.06 З 2-3
{3}
н/о н/о +18.5 +11.0 62 +19 +19 1010.3 999.5
22 16.06 СЗ 2 н/о н/о +18.3 +11.1 63 +19 +19 1010.3 999.6
23 16.06 СЗ 1 н/о н/о +17.9 +11.0 64 +19 +19 1010.5 999.7
00 17.06 СЗ 3-4
{4}
н/о н/о +17.2 +11.7 70 +17 +17 1010.8 1000.0
01 17.06 С 2 н/о н/о +16.2 +11.2 72 +16 +16 1010.8 999.9
02 17.06 СЗ 2 н/о н/о +15.3 +11.4 78 +15 +15 1010.7 999.8
03 17.06 З 1-2
{3}
н/о н/о +17.0 +13.3 79 +18 +18 1010.6 999.8
04 17.06 СЗ 2 н/о н/о +17.3 +12.2 72 +18 +18 1010.9 1000.1
05 17.06 З 1-2
{4}
н/о н/о +18.7 +11.1 61 +20 +20 1010.9 1000.2
06 17.06 ЮЗ 1-2
{2}
н/о н/о +19.9 +11.7 59 +23 +23 комфорт 1010.6 999.9 +15.2 +22.7
07 17.06 Ю 2 н/о н/о +21.5 +11.9 54 +24 +24 комфорт 1010.2 999.6
08 17.06 ЮЗ 4 н/о н/о +21.8 +12.8 57 +24 +24 комфорт 1010.0 999.4
09 17.06 ЮЗ 5-8
{8}
н/о н/о +22.7 +12.9 54 +26 +26 жарко 1009.8 999.3
10 17.06 ЮЗ 4 н/о н/о +22.8 +12.7 53 +26 +26 жарко 1009.6 999.0
11 17.06 ЮЗ 4 н/о н/о +22.1 +12.4 54 +25 +25 комфорт 1009.6 999.0
12 17.06 ЮЗ 3-6
{8}
н/о н/о +22.7 +13.0 54 +26 +26 жарко 1009.4 998.8
13 17.06 ЮЗ 3 н/о н/о +23.4 +11.9 48 +26 +26 жарко 1009.1 998.5
14 17.06 Ю 3-5
{5}
н/о н/о +24.8 +11.9 44 +26 +26 жарко 1008.3 997.8
15 17.06 ЮЗ 4-6
{6}
н/о н/о +24.3 +11.1 43 +26 +26 жарко 1008.0 997.5
16 17.06 ЮЗ 6 н/о н/о +23.2 +11.7 48 +26 +26 жарко 1007.8 997.3
17 17.06 ЮЗ 4 н/о н/о +22.3 +11.2 49 +24 +24 комфорт 1007.9 997.3
18 17.06 З 10-14
{15}
н/о н/о +19.3 +12.7 66 +20 +20 1008.4 997.7 +19.3 +25.0
19 17.06 С 3-3
{14}
н/о н/о +16.5 +13.6 83 +16 +16 1009.1 998.3 0.6
20 17.06 В 2-2
{5}
н/о н/о +16.3 +14.6 90 +16 +16 1008.4 997.6 0.4
21 17.06 ЮЗ 2-4
{5}
н/о н/о +16.2 +14.9 92 +16 +16 1008.6 997.8
22 17.06 ЮЗ 2 н/о н/о +15.8 +14.6 93 +16 +16 1008.6 997.7
23 17.06 З 3 н/о н/о +16.1 +14.1 88 +16 +16 1008.4 997.5
00 18.06 ЮЗ 1-3
{4}
н/о н/о +13.2 +12.4 95 +13 +13 1008.4 997.4
01 18.06 ЮЗ 1-2
{2}
н/о н/о +12.6 +12.4 99 +12 +12 1008.3 997.4
02 18.06 Ю 2 н/о н/о +14.9 +13.5 91 +15 +15 1008.2 997.3
03 18.06 ЮЗ 3-4
{4}
н/о н/о +15.7 +12.7 82 +15 +15 1008.1 997.2
04 18.06 З 4 н/о н/о +16.0 +12.1 78 +15 +15 1008.3 997.5
05 18.06 З 4 н/о н/о +16.5 +12.8 79 +16 +16 1008.5 997.7
06 18.06 З 4-6
{6}
н/о н/о +17.4 +13.3 77 +17 +17 1008.7 998.0 +11.9 +19.3 1
07 18.06 ЮЗ 3-6
{6}
н/о н/о +18.3 +14.2 77 +19 +19 1008.8 998.1
08 18.06 З 6-10
{11}
н/о н/о +19.7 +13.3 67 +21 +21 комфорт 1009.1 998.4
09 18.06 З 7-11
{11}
н/о н/о +20.7 +13.4 63 +23 +23 комфорт 1009.4 998.8
10 18.06 З 5 н/о н/о +21.4 +13.9 62 +24 +24 комфорт 1009.4 998.8
11 18.06 З 7-12
{12}
н/о н/о +22.6 +12.8 54 +25 +25 комфорт 1009.4 998.8
12 18.06 З 8-12
{12}
н/о н/о +23.4 +10.9 45 +26 +26 жарко 1009.4 998.8
13 18.06 З 6-13
{13}
н/о н/о +24.3 +10.9 43 +26 +26 жарко 1009.3 998.8
14 18.06 З 9 н/о н/о +24.2 +10.7 43 +25 +25 комфорт 1009.2 998.7
15 18.06 З 8-12
{13}
н/о н/о +24.7 +11.8 44 +26 +26 жарко 1008.9 998.4
16 18.06 З 7-12
{12}
н/о н/о +24.8 +10.7 41 +26 +26 жарко 1008.7 998.2
17 18.06 З 8-11
{12}
н/о н/о +24.3 +10.2 41 +25 +25 комфорт 1008.7 998.2
18 18.06 З 6-10
{12}
н/о н/о +23.0 +10.3 45 +25 +25 комфорт 1008.9 998.3 +17.1 +25.0
19 18.06 З 5 н/о н/о +21.5 +10.8 51 +23 +23 комфорт 1009.1 998.4
20 18.06 З 6 н/о н/о +19.9 +9.3 50 +21 +21 комфорт 1009.8 999.1
21 18.06 З 5-6
{9}
н/о н/о +18.8 +9.6 55 +19 +19 1010.4 999.7
22 18.06 ЮЗ 5-6
{7}
н/о н/о +18.3 +9.9 58 +18 +18 1010.5 999.7
23 18.06 ЮЗ 3 н/о н/о +17.5 +10.1 62 +18 +18 1010.4 999.6
00 19.06 ЮЗ 4-6
{6}
н/о н/о +17.2 +10.8 66 +17 +17 1010.3 999.5
01 19.06 ЮЗ 5 н/о н/о +17.6 +10.8 64 +17 +17 1010.1 999.3
02 19.06 ЮЗ 5-8
{9}
н/о н/о +17.2 +11.2 68 +17 +17 1010.0 999.2
03 19.06 ЮЗ 5-7
{8}
н/о н/о +17.2 +11.5 69 +17 +17 1010.0 999.2
04 19.06 ЮЗ 5 н/о н/о +17.4 +12.1 71 +17 +17 1009.9 999.2
05 19.06 ЮЗ 4 н/о н/о +17.8 +12.6 72 +18 +18 1009.7 998.9
06 19.06 ЮЗ 6-10
{10}
н/о н/о +18.5 +12.7 69 +19 +19 1009.6 998.9 +16.9 +23.2
07 19.06 ЮЗ 6-9
{10}
н/о н/о +19.2 +13.1 68 +20 +20 1009.3 998.6
08 19.06 ЮЗ 6-8
{9}
н/о н/о +20.0 +12.9 64 +22 +22 комфорт 1009.1 998.4
09 19.06 ЮЗ 6-9
{10}
н/о н/о +20.4 +12.7 61 +22 +22 комфорт 1008.8 998.1
10 19.06 ЮЗ 8 н/о н/о +21.2 +12.4 57 +23 +23 комфорт 1008.3 997.7
11 19.06 ЮЗ 9 н/о н/о +22.7 +11.8 50 +25 +25 комфорт 1008.3 997.8
12 19.06 З 11-16
{16}
н/о н/о +22.3 +11.4 50 +24 +24 комфорт 1008.5 997.9
13 19.06 З 10-14
{14}
н/о н/о +23.0 +10.5 45 +25 +25 комфорт 1008.3 997.8
14 19.06 З 9-13
{15}
н/о н/о +23.2 +10.6 45 +25 +25 комфорт 1008.2 997.7
15 19.06 З 11-14
{14}
н/о н/о +23.1 +8.3 39 +24 +24 комфорт 1008.2 997.7
16 19.06 З 9 н/о н/о +22.6 +9.9 44 +24 +24 комфорт 1008.5 997.9
17 19.06 З 8-10
{13}
н/о н/о +21.9 +9.4 45 +23 +23 комфорт 1008.8 998.2
18 19.06 З 4-6
{9}
н/о н/о +20.8 +9.7 49 +23 +23 комфорт 1009.2 998.6 +18.4 +23.5
19 19.06 З 3 н/о н/о +20.1 +9.7 51 +22 +22 комфорт 1009.6 998.9
20 19.06 З 2-3
{4}
н/о н/о +19.0 +12.3 65 +21 +21 комфорт 1010.1 999.4
21 19.06 З 3-4
{4}
н/о н/о +18.2 +9.1 55 +19 +19 1010.5 999.8
22 19.06 СЗ 2-3
{5}
н/о н/о +17.2 +9.4 60 +18 +18 1011.1 1000.3
23 19.06 СЗ 2-3
{4}
н/о н/о +16.2 +10.1 67 +16 +16 1011.6 1000.7
00 20.06 СЗ 2-3
{4}
н/о н/о +14.9 +9.9 72 +15 +15 1011.9 1001.0
01 20.06 З 1-2
{4}
н/о н/о +14.3 +10.8 79 +15 +15 1012.4 1001.5
02 20.06 СЗ 2-4
{4}
н/о н/о +13.5 +10.7 83 +13 +13 1012.8 1001.8
03 20.06 СЗ 2-3
{4}
н/о н/о +14.2 +10.8 80 +14 +14 1012.8 1001.9
04 20.06 С 2-3
{4}
н/о н/о +15.9 +10.9 72 +16 +16 1012.9 1002.1
05 20.06 С 2 н/о н/о +16.7 +11.0 69 +17 +17 1013.0 1002.2
06 20.06 З 2-3
{4}
н/о н/о +17.2 +11.4 69 +18 +18 1013.2 1002.4 +13.3 +21.0
07 20.06 СЗ 2 н/о н/о +18.2 +11.3 64 +19 +19 1013.0 1002.2
08 20.06 ЮЗ 1 н/о н/о +18.4 +8.9 54 +20 +20 1013.0 1002.2
09 20.06 СЗ 1-3
{3}
н/о н/о +20.1 +10.2 53 +23 +23 комфорт 1012.9 1002.2
10 20.06 Ю 1 н/о н/о +21.8 +10.9 50 +24 +24 комфорт 1012.6 1001.9
11 20.06 Ю 2 н/о н/о +22.5 +10.4 46 +24 +24 комфорт 1012.3 1001.7
12 20.06 ЮВ 2-4
{4}
н/о н/о +23.2 +10.1 43 +25 +25 комфорт 1012.0 1001.5
13 20.06 Ю 2-4
{4}
н/о н/о +23.5 +9.1 40 +24 +24 комфорт 1012.0 1001.4
14 20.06 ЮЗ 2 н/о н/о +23.3 +9.5 41 +25 +25 комфорт 1011.7 1001.2
15 20.06 Ю 1-2
{4}
н/о н/о +23.8 +11.1 45 +25 +25 комфорт 1011.2 1000.7
16 20.06 Ю 1 н/о н/о +23.9 +11.2 45 +25 +25 комфорт 1010.6 1000.1
17 20.06 Ю 1 н/о н/о +24.1 +12.2 47 +26 +26 жарко 1010.3 999.7
18 20.06 В 2-4
{5}
н/о н/о +22.0 +12.2 54 +24 +24 комфорт 1010.2 999.5 +17.0 +24.2
19 20.06 В 3-4
{5}
н/о н/о +21.7 +12.1 54 +24 +24 комфорт 1010.3 999.7
20 20.06 В 3 н/о н/о +20.4 +13.1 63 +23 +23 комфорт 1009.8 999.1

 

Местоположение метеостанции Куопио Маанинка (Финляндия): широта 63.14 долгота 27.31 высота над уровнем моря 90 м.

В архиве по умолчанию представлена погода в Куопио Маанинка за последнюю неделю. Архивные данные за месяц целиком и за предыдущие месяцы, начиная с января 2011 года, Вы можете получить, выбрав интересующий диапазон дат из раскрывающегося списка и нажав кнопку "Ввод!".


*Определитесь, кто Вы:
робот инопланетянин человек

Внимание! Время в таблицах - всемирное. Для получения местного времени необходимо прибавить поправку, которая равна 1 ч.

Смотрите также архив погоды в соседних городах и на ближайших метеорологических станциях:

Погода в Аэропорту Куопио (Финляндия) (29 км)
Погода в Куопио Савилахти (Финляндия) (32 км)
Погода в Куопио Ритониеми (Финляндия) (48 км)
Погода в Весанто (Финляндия) (51 км)
Погода в Раутаваара Яла-Луоста (Финляндия) (73 км)
Погода в Вийтасаари (Финляндия) (73 км)
Погода в Виерема Каараккала (Финляндия) (78 км)
Погода в Валтимо (Финляндия) (96 км)
Погода в Варкаусе (Финляндия) (96 км)
Погода в Юуке (Финляндия) (97 км)

Пояснения к столбцам:

Ветер - указаны скорость ветра в м/с - средняя за 10 мин, порывы в срок и между сроками (в фигурных скобках) и направление, откуда дует ветер: С - северный, СВ - северо-восточный, В - восточный, ЮВ - юго-восточный, Ю - южный, ЮЗ - юго-западный, З - западный, СЗ - северо-западный.
Видимость - горизонтальная дальность видимости в метрах или километрах. При видимости от 1 до 10 км при отсутствии осадков обычно наблюдается дымка, при ухудшении видимости до 1 км и менее - туман. В сухую погоду видимость может ухудшаться дымом, пылью или мглою.
Явления - указаны атмосферные явления, наблюдавшиеся в срок или в последний час перед сроком; фигурными скобками обозначены явления, наблюдавшиеся между сроками (за 1-3 часа до срока); квадратными скобками обозначены град или гололедные отложения с указанием их диаметра в мм.
Облачность - указаны через наклонную черту общая и нижняя облачность в баллах и высота нижней границы облаков в метрах; квадратными скобками обозначены формы облаков: Ci - перистые, Cs - перисто-слоистые, Cc - перисто-кучевые, Ac - высококучевые, As - высокослоистые, Sc - слоисто-кучевые, Ns - слоисто-дождевые, Cu - кучевые, Cb - кучево-дождевые. Подробнее классификацию облаков см. в Атласе облаков (PDF).
T - Температура воздуха - температура, измеренная на высоте 2 м над землей.
Td - Температура точки росы - температура, при понижении до которой содержащийся в воздухе водяной пар достигнет насыщения.
f - Относительная влажность воздуха - влажноcть воздуха, измеренная на высоте 2 м над землей.
Te - Эффективная температура - температура, которую ощущает одетый по сезону человек в тени. Характеристика душности погоды. При расчете учитывается влияние влажности воздуха и скорости ветра на теплоощущения человека.
Tes - Эффективная температура на солнце - температура, которую ощущает человек, с поправкой на солнечный нагрев. Характеристика знойности погоды. Зависит от высоты солнца над горизонтом, облачности и скорости ветра. Ночью, в пасмурную погоду, а также при ветре 12 м/с и более поправка равна нулю.
P - Атмосферное давление - приведенное к уровню моря атмосферное давление.
Po - Атмосферное давление - измеренное на уровне метеостанции атмосферное давление.
Tmin - Минимальная температура - минимум температуры воздуха на высоте 2 м над землей.
Tmax - Максимальная температура - максимум температуры воздуха на высоте 2 м над землей.
R - Количество осадков - Количество выпавших осадков за период времени, мм. При наведении курсора мыши на число - период времени, за который выпало указанное количество осадков.
R24 - Количество осадков - Количество выпавших осадков за 24 часа, мм.
S - Снежный покров - Высота снежного покрова, см. При наведении курсора мыши на число - состояние снежного покрова и степень покрытия местности в баллах.